Location: Brachbach
(49.1847°N, 9.7240°E)
Time: 12:26:35
(UTC+00:00)

CZ-2C R/B - Pass Details

Date: 07 August 2024
Orbit: 782 x 869 km, 98.3° (Epoch: 15 September)

Event Time Altitude Azimuth Distance (km) Brightness Sun altitude
Exits shadow 01:47:10 29° 208° (SSW) 1,525 3.4 -17.5°
Maximum altitude 01:49:35 46° 262° (W) 1,142 3.1 -17.3°
Drops below altitude 10° 01:54:52 10° 335° (NNW) 2,475 5.5 -16.8°
Sets 01:57:19 0° 342° (NNW) 3,401 6.3 -16.5°
